Regional Weather Roundup
Issued by NWS

Home | Current Version | Previous Version | Text Only | Print | Product List | Glossary On
Versions: 1 2 3 4 5 6 7 8 9 10 11 12 13 14 15 16 17 18 19 20 21 22 23 24 25 26 27 28 29 30 31 32 33 34 35 36 37 38 39 40 41 42 43 44 45 46 47 48 49 50
000
ASUS45 KTFX 071110
RWRMT
MONTANA REGIONAL WEATHER ROUNDUP
NATIONAL WEATHER SERVICE GREAT FALLS MT
500 AM MDT TUE JUL 07 2015

NOTE: "FAIR" INDICATES FEW OR NO CLOUDS BELOW 12000 FEET WITH NO
SIGNIFICANT WEATHER AND/OR OBSTRUCTIONS TO VISIBILITY.

MTZ001>007-043-071200-
WEST OF THE DIVIDE

CITY           SKY/WX    TMP DP  RH WIND       PRES   REMARKS
KALISPELL      CLOUDY    60  45  57 N8        30.04R
MISSOULA       PTCLDY    58  38  47 S3        30.05F
BUTTE          MOCLDY    45  32  60 SE6       30.18S
MULLAN PASS    CLOUDY    63  37  38 S5        30.16F
DEER LODGE       N/A     46  36  66 CALM      30.17S
EUREKA           N/A     64  46  52 CALM      30.02S
HAMILTON         N/A     59  39  47 S9        30.06F
LIBBY            N/A     61  45  55 CALM      30.01F
PLAINS           N/A     59  45  59 CALM      30.00F
RONAN            N/A     59  50  72 CALM      30.06S
THOMPSON FALLS   N/A     61  48  62 CALM      30.03F
$$

MTZ008-052>055-071200-
SOUTHWEST MONTANA

CITY           SKY/WX    TMP DP  RH WIND       PRES   REMARKS
BOZEMAN        CLEAR     52  47  83 E3        30.12F
DILLON         CLEAR     53  46  77 SE5       30.14F
W YELLOWSTONE  CLOUDY    52  50  93 CALM      30.24S
THREE FORKS      N/A     51  51 100 CALM      30.10S
$$

MTZ009-010-012-014-046-048-049-054-071200-
EAST SLOPES AND CENTRAL MONTANA

CITY           SKY/WX    TMP DP  RH WIND       PRES   REMARKS
CUT BANK       MOCLDY    54  50  86 NW21G30   30.10S
GREAT FALLS    CLEAR     51  47  86 SW6       30.06S
MALMSTROM AFB  CLEAR     51  49  91 MISG      30.06S
HELENA         PTCLDY    56  48  74 CALM      30.09F
CONRAD           N/A     56  55  96 W16       30.10R
$$

MTZ011-013-016-021-045-047-050-051-071200-
NORTH CENTRAL MONTANA

CITY           SKY/WX    TMP DP  RH WIND       PRES   REMARKS
HAVRE          PTCLDY    54  50  86 E8        30.04F
LEWISTOWN      CLEAR     49  44  83 SE3       30.09S
CHINOOK          N/A     54  48  82 CALM      30.05S
FORT BENTON      N/A     54  50  87 CALM      30.05S
$$

MTZ017>020-022>027-061-062-071200-
NORTHEAST MONTANA

CITY           SKY/WX    TMP DP  RH WIND       PRES   REMARKS
GLASGOW        PTCLDY    55  48  77 E10       30.06F
JORDAN           N/A     54  46  74 E5        30.07F
SIDNEY         PTCLDY    54  50  87 CALM      30.13F
WOLF POINT     PTCLDY    56  51  84 E6        30.09F HAZE
MALTA            N/A     55  46  71 CALM      30.02F
PLENTYWOOD       N/A     52  46  82 E5        30.12F
POPLAR           N/A     54  52  94 NE3       30.10F
SCOBEY           N/A     49  42  76 SE2       30.09F
$$

MTZ028>42-056>058-071200-
SOUTHCENTRAL AND SOUTHEAST MONTANA

CITY           SKY/WX    TMP DP  RH WIND       PRES   REMARKS
BAKER          CLEAR     51  49  92 E8        30.15F FOG
BILLINGS       PTCLDY    55  50  83 N3        30.10F
LIVINGSTON     PTCLDY    50  46  86 NW5       30.13F
MILES CITY     CLEAR     55  49  80 S3        30.09F
EKALAKA          N/A     53  48  83 SE8       30.11F
FORSYTH          N/A     52  52 100 E3        30.07F
LAUREL           N/A     52  46  79 NW2       30.07F
ROUNDUP          N/A     50  42  73 SW2       30.00F
$$

REGIONAL REPORTS...DAKOTAS

CITY           SKY/WX    TMP DP  RH WIND       PRES   REMARKS
WILLISTON      CLEAR     54  49  83 SW3       30.14F
MINOT          CLEAR     49  44  83 CALM      30.15F
DICKINSON      CLEAR     50  47  89 S10       30.15F FOG
BEACH          PTSUNNY   54  54 100 SE8       30.15F FOG
CROSBY         FAIR      50  50 100 S9        30.14F
BISMARCK       CLEAR     46  44  93 E3        30.20S
GRAND FORKS    CLEAR     44  42  93 W6        30.17S
FARGO          CLEAR     42  39  89 CALM      30.19R
BUFFALO SD       N/A     55  50  83 E6        30.10F
RAPID CITY     PTCLDY    54  53  97 SE3       30.17S FOG
$$

REGIONAL REPORTS...WYOMING/IDAHO/WASHINGTON

CITY           SKY/WX    TMP DP  RH WIND       PRES   REMARKS
GILLETTE       CLEAR     54  52  93 S12       30.14F FOG
SHERIDAN       PTCLDY    48  46  93 SW5       30.10F FOG
BUFFALO WY     CLEAR     52  46  80 SW6       30.14F
CODY           CLOUDY    55  52  88 CALM      30.14F
YELLOWSTONE LA   N/A     46  44  93 NW3       30.31F
IDAHO FALLS    MOCLDY    56  53  90 N3        30.11F
SALMON         CLEAR     55  45  67 CALM      30.10S
BOISE          MOCLDY    75  48  38 SE10      29.97S
SPOKANE        PTCLDY    69  45  41 S6        29.93S
$$

REGIONAL REPORTS...ALBERTA

CITY           SKY/WX    TMP DP  RH WIND       PRES   REMARKS
EDMONTON       CLOUDY    52  41  66 N13       30.14R
CALGARY        MOCLDY    55  48  76 N5        30.14S
LETHBRIDGE     CLOUDY    55  52  88 SW9       30.12R
MEDICINE HAT   LGT RAIN  61  50  67 E3        30.06F
WATERTON GATE    N/A     55  48  76 NW3         N/A
CARDSTON         N/A     54  50  87 W7          N/A
MILK RIVER       N/A     54  52  94 N14         N/A
ONEFOUR          N/A     52  46  82 NE10        N/A
$$

REGIONAL REPORTS...SASKATCHEWAN

CITY           SKY/WX    TMP DP  RH WIND       PRES   REMARKS
SWIFT CURRENT  PTCLDY    54  45  71 S12       30.04F
REGINA         CLOUDY    48  45  87 SE7       30.08F
SASKATOON      PTCLDY    50  48  93 S7        30.00F
CYPRESS HILLS    N/A     50  41  71 S1          N/A
VAL MARIE        N/A     45  43  93 NE5         N/A
ROCKGLEN         N/A     48  46  93 S8          N/A
ASSINIBOIA       N/A     54  50  87 N10         N/A
$$



USA.gov is the U.S. government's official web portal to all federal, state and local government web resources and services.